DW2494 Weather Reports


Display with metric or nautical units.
time (UTC)temp
F
wind
direction
speed
MPH
gust
MPH
rain 1hr
in
rain 24hr
in
rain mn
in
humidity
%
barometer
mb
20260906184317 101 264 5.0 9.0 0.00 0.00 0.00 38 1010.0
20260906183329 103 61 2.0 8.0 0.00 0.00 0.00 36 1010.1
20260906182823 103 220 4.0 8.0 0.00 0.00 0.00 37 1010.3
20260906180830 101 321 2.0 7.0 0.00 0.00 0.00 41 1010.4
20260906180326 102 231 4.0 7.0 0.00 0.00 0.00 38 1010.6
20260906175821 102 280 5.0 9.0 0.00 0.00 0.00 39 1010.8
20260906175315 102 260 6.0 9.0 0.00 0.00 0.00 39 1010.8
20260906174830 103 298 4.0 11.0 0.00 0.00 0.00 39 1011.0
20260906174324 102 209 4.0 11.0 0.00 0.00 0.00 40 1011.1
20260906173824 102 11 3.0 6.0 0.00 0.00 0.00 40 1011.2
20260906173318 102 309 2.0 6.0 0.00 0.00 0.00 42 1011.3
20260906172812 101 93 3.0 8.0 0.00 0.00 0.00 43 1011.4
20260906171320 101 172 1.0 6.0 0.00 0.00 0.00 43 1011.6
20260906170815 101 244 3.0 6.0 0.00 0.00 0.00 44 1011.8
20260906170329 101 176 1.0 4.0 0.00 0.00 0.00 44 1011.8
20260906165825 99 38 1.0 7.0 0.00 0.00 0.00 45 1011.9
20260906165324 99 304 3.0 7.0 0.00 0.00 0.00 45 1011.9
20260906164818 99 290 2.0 4.0 0.00 0.00 0.00 45 1012.0
20260906164313 99 304 3.0 5.0 0.00 0.00 0.00 45 1012.0
20260906163828 99 262 2.0 5.0 0.00 0.00 0.00 47 1012.0
20260906163323 99 44 3.0 4.0 0.00 0.00 0.00 48 1012.1
20260906162816 98 204 1.0 5.0 0.00 0.00 0.00 49 1012.0
20260906162331 98 205 3.0 5.0 0.00 0.00 0.00 48 1012.0
20260906161829 97 74 2.0 4.0 0.00 0.00 0.00 49 1012.1
20260906161324 97 30 2.0 5.0 0.00 0.00 0.00 50 1012.2
20260906160819 97 360 3.0 5.0 0.00 0.00 0.00 49 1012.3
20260906155327 96 281 1.0 3.0 0.00 0.00 0.00 52 1012.3
20260906154821 96 144 1.0 3.0 0.00 0.00 0.00 53 1012.3
20260906153313 95 228 2.0 4.0 0.00 0.00 0.00 55 1012.2
20260906152829 94 81 2.0 4.0 0.00 0.00 0.00 56 1012.2
20260906152324 93 269 1.0 5.0 0.00 0.00 0.00 56 1012.2
20260906151818 93 103 1.0 3.0 0.00 0.00 0.00 57 1012.2
20260906151313 93 81 1.0 3.0 0.00 0.00 0.00 57 1012.2
20260906150827 92 74 1.0 3.0 0.00 0.00 0.00 59 1012.3
20260906150322 92 75 2.0 3.0 0.00 0.00 0.00 60 1012.2
20260906145816 91 167 1.0 3.0 0.00 0.00 0.00 61 1012.3
20260906145314 91 203 1.0 4.0 0.00 0.00 0.00 61 1012.3
20260906144829 90 212 2.0 4.0 0.00 0.00 0.00 61 1012.3
20260906144324 90 267 0.0 3.0 0.00 0.00 0.00 63 1012.3
20260906143315 88 233 2.0 5.0 0.00 0.00 0.00 65 1012.3
20260906142829 88 231 3.0 5.0 0.00 0.00 0.00 66 1012.4
20260906142324 88 184 1.0 4.0 0.00 0.00 0.00 66 1012.5
20260906141319 87 262 3.0 4.0 0.00 0.00 0.00 66 1012.3
20260906140814 87 253 1.0 5.0 0.00 0.00 0.00 69 1012.3
20260906140328 86 251 2.0 5.0 0.00 0.00 0.00 70 1012.4
20260906135823 86 244 2.0 4.0 0.00 0.00 0.00 70 1012.3
20260906134814 85 213 2.0 5.0 0.00 0.00 0.00 71 1012.3
20260906134329 84 247 3.0 5.0 0.00 0.00 0.00 73 1012.2
20260906133823 82 259 0.0 3.0 0.00 0.00 0.00 76 1012.2
20260906133322 79 261 1.0 3.0 0.00 0.00 0.00 84 1012.2
20260906132816 77 159 0.0 2.0 0.00 0.00 0.00 86 1012.1
20260906132331 77 159 1.0 2.0 0.00 0.00 0.00 86 1012.1
20260906131826 76 143 0.0 2.0 0.00 0.00 0.00 87 1012.1
20260906131320 76 142 1.0 3.0 0.00 0.00 0.00 87 1012.1
20260906130815 75 142 1.0 3.0 0.00 0.00 0.00 88 1012.0
20260906130330 75 227 0.0 1.0 0.00 0.00 0.00 88 1011.9
20260906125825 74 227 0.0 2.0 0.00 0.00 0.00 87 1011.8
20260906125324 74 227 1.0 2.0 0.00 0.00 0.00 87 1011.7
20260906124819 74 227 0.0 0.0 0.00 0.00 0.00 87 1011.6
20260906124313 74 227 0.0 0.0 0.00 0.00 0.00 87 1011.6
20260906123323 74 227 0.0 1.0 0.00 0.00 0.00 86 1011.6
20260906122818 74 307 0.0 1.0 0.00 0.00 0.00 87 1011.6
20260906121829 74 277 0.0 2.0 0.00 0.00 0.00 87 1011.4
20260906120824 74 120 0.0 1.0 0.00 0.00 0.00 87 1011.2
20260906120319 74 180 0.0 1.0 0.00 0.00 0.00 87 1011.3
20260906115813 74 360 0.0 1.0 0.00 0.00 0.00 87 1011.2
20260906115327 74 38 0.0 1.0 0.00 0.00 0.00 87 1011.2
20260906114823 74 80 0.0 0.0 0.00 0.00 0.00 87 1011.2
20260906114318 74 123 0.0 0.0 0.00 0.00 0.00 87 1011.2
20260906113832 74 123 0.0 0.0 0.00 0.00 0.00 87 1011.1
20260906113330 74 124 0.0 1.0 0.00 0.00 0.00 87 1011.1
20260906112322 74 124 0.0 1.0 0.00 0.00 0.00 87 1011.1
20260906111816 74 124 0.0 1.0 0.00 0.00 0.00 87 1011.1
20260906111330 74 124 0.0 1.0 0.00 0.00 0.00 87 1011.0
20260906110824 74 123 0.0 0.0 0.00 0.00 0.00 87 1011.0
20260906110319 74 123 0.0 0.0 0.00 0.00 0.00 87 1011.0
20260906105813 74 124 0.0 2.0 0.00 0.00 0.00 87 1011.0
20260906105331 74 124 0.0 2.0 0.00 0.00 0.00 88 1011.0
20260906104826 74 124 1.0 2.0 0.00 0.00 0.00 88 1011.1
20260906104321 74 123 0.0 0.0 0.00 0.00 0.00 88 1011.0
20260906103816 74 123 0.0 0.0 0.00 0.00 0.00 88 1011.0
20260906103331 74 123 0.0 2.0 0.00 0.00 0.00 88 1011.0
20260906102825 74 124 1.0 2.0 0.00 0.00 0.00 88 1010.9
20260906102320 74 124 0.0 0.0 0.00 0.00 0.00 88 1011.0
20260906101818 74 123 0.0 0.0 0.00 0.00 0.00 88 1010.8
20260906101313 74 124 0.0 0.0 0.00 0.00 0.00 88 1010.8
20260906100827 74 123 0.0 0.0 0.00 0.00 0.00 88 1010.9
20260906100322 74 123 0.0 0.0 0.00 0.00 0.00 88 1010.9
20260906095816 74 124 0.0 1.0 0.00 0.00 0.00 88 1010.8
20260906094324 75 123 0.0 0.0 0.00 0.00 0.00 88 1010.8
20260906093818 75 124 0.0 0.0 0.00 0.00 0.00 88 1010.8
20260906093315 75 123 0.0 0.0 0.00 0.00 0.00 88 1010.7
20260906092829 75 123 0.0 0.0 0.00 0.00 0.00 88 1010.6
20260906092323 75 123 0.0 0.0 0.00 0.00 0.00 88 1010.6
20260906091315 75 123 0.0 0.0 0.00 0.00 0.00 88 1010.6
20260906090829 75 124 0.0 0.0 0.00 0.00 0.00 88 1010.5
20260906090324 75 124 0.0 0.0 0.00 0.00 0.00 88 1010.5
20260906085319 74 123 0.0 0.0 0.00 0.00 0.00 88 1010.5
20260906084813 74 123 0.0 2.0 0.00 0.00 0.00 88 1010.4
20260906084328 74 124 1.0 2.0 0.00 0.00 0.00 88 1010.5
20260906083822 74 123 0.0 0.0 0.00 0.00 0.00 87 1010.3
20260906083316 74 123 0.0 1.0 0.00 0.00 0.00 87 1010.3
20260906082831 74 124 0.0 2.0 0.00 0.00 0.00 86 1010.3
20260906082325 75 124 0.0 1.0 0.00 0.00 0.00 86 1010.4
20260906081820 75 124 0.0 0.0 0.00 0.00 0.00 86 1010.3
20260906081318 75 124 0.0 0.0 0.00 0.00 0.00 86 1010.3
20260906080813 75 123 0.0 1.0 0.00 0.00 0.00 86 1010.3
20260906075824 76 124 1.0 1.0 0.00 0.00 0.00 86 1010.1
20260906075319 76 124 0.0 0.0 0.00 0.00 0.00 86 1010.1
20260906074813 76 124 0.0 0.0 0.00 0.00 0.00 85 1010.0
20260906073825 76 124 0.0 0.0 0.00 0.00 0.00 85 1009.9
20260906073323 76 123 0.0 0.0 0.00 0.00 0.00 85 1010.1
20260906072816 76 123 0.0 1.0 0.00 0.00 0.00 85 1010.1
20260906072331 77 124 0.0 1.0 0.00 0.00 0.00 84 1010.1
20260906071825 77 124 0.0 0.0 0.00 0.00 0.00 84 1010.2
20260906071321 77 124 0.0 0.0 0.00 0.00 0.00 83 1010.2
20260906070815 77 124 0.0 2.0 0.00 0.00 0.00 83 1010.2
20260906070330 77 123 0.0 2.0 0.00 0.00 0.00 83 1010.2
20260906065825 77 123 0.0 1.0 0.00 0.00 0.00 81 1010.3
20260906065324 78 123 0.0 0.0 0.00 0.00 0.00 81 1010.2
20260906064819 78 123 0.0 2.0 0.00 0.00 0.00 81 1010.1
20260906063830 79 123 2.0 2.0 0.00 0.00 0.00 80 1010.0
20260906063324 79 127 1.0 2.0 0.00 0.00 0.00 79 1010.1
20260906062819 79 127 0.0 1.0 0.00 0.00 0.00 78 1010.0
20260906062313 80 127 0.0 1.0 0.00 0.00 0.00 78 1010.0
20260906061828 80 127 0.0 2.0 0.00 0.00 0.00 77 1010.0
20260906061327 80 127 1.0 3.0 0.00 0.00 0.00 77 1010.1
20260906060821 80 127 2.0 3.0 0.00 0.00 0.00 77 1010.2
20260906060316 80 226 1.0 2.0 0.00 0.00 0.00 77 1010.2
20260906055327 81 226 1.0 2.0 0.00 0.00 0.00 76 1010.3
20260906054823 80 226 0.0 2.0 0.00 0.00 0.00 77 1010.3
20260906054317 80 226 0.0 4.0 0.00 0.00 0.00 78 1010.3
20260906053331 79 188 1.0 5.0 0.00 0.00 0.00 78 1010.4
20260906052825 80 78 0.0 2.0 0.00 0.00 0.00 78 1010.2
20260906052320 80 78 1.0 2.0 0.00 0.00 0.00 76 1010.2
20260906051815 81 78 0.0 3.0 0.00 0.00 0.00 75 1010.0
20260906051329 81 78 1.0 3.0 0.00 0.00 0.00 74 1010.0
20260906050321 80 68 2.0 4.0 0.00 0.00 0.00 76 1010.1
20260906045815 80 68 3.0 4.0 0.00 0.00 0.00 76 1010.1
20260906045314 80 128 1.0 2.0 0.00 0.00 0.00 77 1010.0
20260906044828 80 128 1.0 1.0 0.00 0.00 0.00 77 1009.9
20260906044323 80 128 0.0 2.0 0.00 0.00 0.00 76 1010.0
20260906042830 80 191 1.0 2.0 0.00 0.00 0.00 77 1010.0
20260906042324 80 201 0.0 1.0 0.00 0.00 0.00 78 1010.0
20260906041819 80 202 0.0 3.0 0.00 0.00 0.00 78 1010.0
20260906041317 80 201 1.0 3.0 0.00 0.00 0.00 78 1010.0
20260906040832 80 225 0.0 1.0 0.00 0.00 0.00 78 1009.8
20260906035823 81 225 0.0 1.0 0.00 0.00 0.00 78 1009.7
20260906035318 81 225 0.0 0.0 0.00 0.00 0.00 79 1009.8
20260906034832 81 225 0.0 0.0 0.00 0.00 0.00 77 1009.8
20260906034327 81 225 0.0 0.0 0.00 0.00 0.00 77 1009.8
20260906033821 81 225 0.0 0.0 0.00 0.00 0.00 76 1009.8
20260906033320 81 225 0.0 1.0 0.00 0.00 0.00 74 1009.6
20260906032815 81 225 0.0 1.0 0.00 0.00 0.00 74 1009.7
20260906032329 81 225 0.0 3.0 0.00 0.00 0.00 75 1009.8
20260906030817 82 223 0.0 0.0 0.00 0.00 0.00 73 1009.7
20260906030331 83 223 0.0 0.0 0.00 0.00 0.00 72 1009.8
20260906025825 83 223 0.0 0.0 0.00 0.00 0.00 72 1009.8
20260906024821 84 223 0.0 1.0 0.00 0.00 0.00 69 1009.5
20260906023328 84 223 1.0 1.0 0.00 0.00 0.00 69 1009.6
20260906022823 84 223 0.0 1.0 0.00 0.00 0.00 69 1009.5
20260906022318 84 223 0.0 1.0 0.00 0.00 0.00 68 1009.4
20260906021832 84 223 1.0 1.0 0.00 0.00 0.00 68 1009.4
20260906021326 84 223 1.0 1.0 0.00 0.00 0.00 69 1009.2
20260906020821 84 223 0.0 3.0 0.00 0.00 0.00 68 1009.1
20260906020320 85 225 2.0 3.0 0.00 0.00 0.00 69 1009.1
20260906015330 85 227 0.0 1.0 0.00 0.00 0.00 68 1008.9
20260906014321 86 227 0.0 1.0 0.00 0.00 0.00 65 1008.8
20260906013816 87 227 0.0 2.0 0.00 0.00 0.00 64 1008.8
20260906012323 88 227 0.0 0.0 0.00 0.00 0.00 60 1008.5
20260906011821 88 227 0.0 0.0 0.00 0.00 0.00 59 1008.5
20260906011315 89 227 0.0 0.0 0.00 0.00 0.00 57 1008.4
20260906010829 89 227 0.0 0.0 0.00 0.00 0.00 57 1008.3
20260906010324 90 227 0.0 1.0 0.00 0.00 0.00 57 1008.4
20260906005817 90 227 0.0 1.0 0.00 0.00 0.00 56 1008.3
20260906005332 91 227 0.0 2.0 0.00 0.00 0.00 56 1008.3
20260906004826 92 227 1.0 3.0 0.00 0.00 0.00 55 1008.3
20260906004321 93 227 1.0 3.0 0.00 0.00 0.00 51 1008.2
20260906003818 93 103 0.0 0.0 0.00 0.00 0.00 50 1008.2
20260906003333 94 103 0.0 0.0 0.00 0.00 0.00 49 1008.3
20260906002827 95 103 0.0 0.0 0.00 0.00 0.00 49 1008.2
20260906002321 96 103 0.0 0.0 0.00 0.00 0.00 46 1008.3
20260906000826 99 103 0.0 1.0 0.00 0.00 0.00 44 1008.2
20260906000321 99 103 0.0 1.0 0.00 0.00 0.00 45 1008.1
20260905235819 100 103 0.0 0.0 0.00 0.00 0.00 40 1008.1
20260905235313 100 103 0.0 1.0 0.00 0.00 0.00 42 1008.1
20260905234828 100 103 0.0 1.0 0.00 0.00 0.00 41 1008.1
20260905234322 100 104 0.0 2.0 0.00 0.00 0.00 41 1008.1
20260905233817 100 104 1.0 3.0 0.00 0.00 0.00 38 1008.0
20260905232828 101 110 1.0 3.0 0.00 0.00 0.00 39 1008.1
20260905232323 101 329 1.0 2.0 0.00 0.00 0.00 38 1008.1
20260905231821 101 327 1.0 2.0 0.00 0.00 0.00 38 1008.1
20260905230832 101 330 2.0 3.0 0.00 0.00 0.00 39 1008.0
20260905225823 101 48 2.0 4.0 0.00 0.00 0.00 39 1008.3
20260905225317 101 49 3.0 4.0 0.00 0.00 0.00 39 1008.3
20260905224832 101 355 2.0 4.0 0.00 0.00 0.00 39 1008.2
20260905224327 101 38 1.0 4.0 0.00 0.00 0.00 40 1008.2
20260905223821 101 78 2.0 4.0 0.00 0.00 0.00 39 1008.2
20260905223320 101 61 1.0 4.0 0.00 0.00 0.00 39 1008.2
20260905222814 101 360 2.0 6.0 0.00 0.00 0.00 39 1008.3
20260905222329 101 96 3.0 6.0 0.00 0.00 0.00 39 1008.3
20260905221823 101 69 2.0 5.0 0.00 0.00 0.00 39 1008.3
20260905221318 102 78 3.0 5.0 0.00 0.00 0.00 39 1008.4
20260905215329 102 290 4.0 9.0 0.00 0.00 0.00 38 1008.5
20260905214822 102 315 3.0 8.0 0.00 0.00 0.00 40 1008.5
20260905214316 102 289 4.0 8.0 0.00 0.00 0.00 39 1008.6
20260905213815 102 321 2.0 6.0 0.00 0.00 0.00 40 1008.7
20260905213329 102 333 4.0 8.0 0.00 0.00 0.00 39 1008.7
20260905212319 102 276 2.0 6.0 0.00 0.00 0.00 39 1008.8
20260905211812 102 360 3.0 8.0 0.00 0.00 0.00 40 1008.9
20260905211326 102 360 3.0 9.0 0.00 0.00 0.00 39 1009.1
20260905210315 102 309 5.0 8.0 0.00 0.00 0.00 40 1009.3
20260905205813 101 346 2.0 4.0 0.00 0.00 0.00 41 1009.3
20260905204823 101 293 2.0 6.0 0.00 0.00 0.00 40 1009.3
20260905203814 101 57 1.0 4.0 0.00 0.00 0.00 41 1009.4
20260905203328 100 355 1.0 4.0 0.00 0.00 0.00 41 1009.5
20260905202823 99 355 3.0 4.0 0.00 0.00 0.00 41 1009.6
20260905202317 98 197 0.0 2.0 0.00 0.00 0.00 45 1009.9
20260905201830 98 198 0.0 2.0 0.00 0.00 0.00 45 1010.0
20260905201329 98 198 1.0 5.0 0.00 0.00 0.00 44 1010.1
20260905200824 98 199 2.0 5.0 0.00 0.00 0.00 42 1010.2
20260905200318 99 82 1.0 7.0 0.00 0.00 0.00 43 1010.2
20260905195813 98 86 3.0 7.0 0.00 0.00 0.00 44 1010.3
20260905195327 98 25 2.0 4.0 0.00 0.00 0.00 43 1010.3
20260905194819 98 74 1.0 5.0 0.00 0.00 0.00 43 1010.4
20260905194313 99 82 3.0 5.0 0.00 0.00 0.00 41 1010.5
20260905193812 100 67 2.0 7.0 0.00 0.00 0.00 42 1010.5
20260905193327 99 103 2.0 7.0 0.00 0.00 0.00 44 1010.6
20260905192821 98 119 1.0 4.0 0.00 0.00 0.00 44 1010.6
20260905192315 99 120 3.0 7.0 0.00 0.00 0.00 43 1010.7
20260905191830 100 118 2.0 8.0 0.00 0.00 0.00 43 1010.7
20260905190317 100 246 3.0 6.0 0.00 0.00 0.00 42 1011.0